sat.trackr.live / text

‹ back to catalog

STARLINK-37128

NORAD 68385 · 2026-063F

PAYLOAD ACTIVE UNKNOWN

§ Identity

Operator
Country
US
Launch date
2026-03-26
Launch site
AFWTR
Launch vehicle
Mass (kg)
RCS (m²)

Purposes: comms

External: N2YO · Heavens-Above · Gunter

§ Orbital elements

Epoch: 2026-09-19T08:38:53.552256Z

Period
93.91 min
Inclination
97.2851°
Eccentricity
0.0000347
Mean motion
15.33452055 rev/d
Perigee alt
465.3 km
Apogee alt
465.8 km
Semi-major
6,843.7 km
B*
8.0447e-4
RAAN
43.2314°
Arg perigee
69.9454°
Mean anomaly
290.1826°
Rev number
2,757

§ Raw data

STARLINK-371281 68385U 26063F   26262.36034204  .00025991  00000+0  80447-3 0  99982 68385  97.2851  43.2314 0000347  69.9454 290.1826 15.33452055 27574

JSON: /api/v1/satellites/68385 · /tle

For live sub-satellite position, see the globe view (requires WebGL).

§ Visibility from observer

Set your observer location to see the next 7 days of passes ≥ 10°. The values pass through the URL so the page stays shareable.

No JS? Fill the form by hand. The geolocation button needs JavaScript.